Time,TemperatureF,DewpointF,PressureIn,WindDirection,WindDirectionDegrees,WindSpeedMPH,WindSpeedGustMPH,Humidity,HourlyPrecipIn,Conditions,Clouds,dailyrainin,SoftwareType,DateUTC
2013-08-13 00:00:00,65.5,52.5,28.97,North,0,0.0,0.0,63,0.00,CLR,,0.00,WeatherDisplay:10.37,2013-08-13 05:00:00,
2013-08-13 00:10:00,65.1,53.1,28.97,North,0,0.0,0.0,65,0.00,CLR,,0.00,WeatherDisplay:10.37,2013-08-13 05:10:00,
2013-08-13 00:20:00,64.8,53.1,28.97,North,0,0.0,0.0,66,0.00,CLR,,0.00,WeatherDisplay:10.37,2013-08-13 05:20:00,
2013-08-13 00:30:00,64.6,53.4,28.97,North,0,0.0,0.0,67,0.00,CLR,,0.00,WeatherDisplay:10.37,2013-08-13 05:30:00,
2013-08-13 00:40:00,64.4,53.6,28.97,North,0,0.0,0.0,68,0.00,CLR,,0.00,WeatherDisplay:10.37,2013-08-13 05:40:00,
2013-08-13 00:50:00,64.2,53.8,28.97,North,0,0.0,0.0,69,0.00,CLR,,0.00,WeatherDisplay:10.37,2013-08-13 05:50:00,
2013-08-13 01:00:00,63.9,53.5,28.97,North,0,0.0,0.0,69,0.00,CLR,,0.00,WeatherDisplay:10.37,2013-08-13 06:00:00,
2013-08-13 01:10:00,63.5,53.5,28.97,North,0,0.0,0.0,70,0.00,CLR,,0.00,WeatherDisplay:10.37,2013-08-13 06:10:00,
2013-08-13 01:20:00,63.1,53.2,28.97,North,0,0.0,0.0,70,0.00,CLR,,0.00,WeatherDisplay:10.37,2013-08-13 06:20:00,
2013-08-13 01:30:00,63.1,53.2,28.97,North,0,0.0,0.0,70,0.00,CLR,,0.00,WeatherDisplay:10.37,2013-08-13 06:30:00,
2013-08-13 01:40:00,63.0,53.0,29.00,North,0,0.0,0.0,70,0.00,CLR,,0.00,WeatherDisplay:10.37,2013-08-13 06:40:00,
2013-08-13 01:50:00,62.6,52.7,29.00,North,0,0.0,0.0,70,0.00,CLR,,0.00,WeatherDisplay:10.37,2013-08-13 06:50:00,
2013-08-13 02:00:00,62.4,52.9,29.00,North,0,0.0,0.0,71,0.00,CLR,,0.00,WeatherDisplay:10.37,2013-08-13 07:00:00,
2013-08-13 02:10:00,62.2,53.1,29.00,North,0,0.0,0.0,72,0.00,CLR,,0.00,WeatherDisplay:10.37,2013-08-13 07:10:00,
2013-08-13 02:20:00,62.2,53.1,29.00,North,0,0.0,0.0,72,0.00,CLR,,0.00,WeatherDisplay:10.37,2013-08-13 07:20:00,
2013-08-13 02:30:00,62.1,53.0,29.00,North,0,0.0,0.0,72,0.00,CLR,,0.00,WeatherDisplay:10.37,2013-08-13 07:30:00,
2013-08-13 02:40:00,61.9,52.8,29.00,North,0,0.0,0.0,72,0.00,CLR,,0.00,WeatherDisplay:10.37,2013-08-13 07:40:00,
2013-08-13 02:50:00,61.5,52.4,29.00,North,0,0.0,0.0,72,0.00,CLR,,0.00,WeatherDisplay:10.37,2013-08-13 07:50:00,
2013-08-13 03:00:00,61.2,52.1,29.00,North,0,0.0,0.0,72,0.00,CLR,,0.00,WeatherDisplay:10.37,2013-08-13 08:00:00,
2013-08-13 03:10:00,61.0,52.3,29.00,North,0,0.0,0.0,73,0.00,CLR,,0.00,WeatherDisplay:10.37,2013-08-13 08:10:00,
2013-08-13 03:20:00,60.7,52.3,29.00,North,0,0.0,0.0,74,0.00,CLR,,0.00,WeatherDisplay:10.37,2013-08-13 08:20:00,
2013-08-13 03:30:00,60.3,52.3,29.00,North,0,0.0,0.0,75,0.00,CLR,,0.00,WeatherDisplay:10.37,2013-08-13 08:30:00,
2013-08-13 03:40:00,59.9,52.3,29.00,North,0,0.0,0.0,76,0.00,CLR,,0.00,WeatherDisplay:10.37,2013-08-13 08:40:00,
2013-08-13 03:50:00,59.6,52.4,29.00,North,0,0.0,0.0,77,0.00,CLR,,0.00,WeatherDisplay:10.37,2013-08-13 08:50:00,
2013-08-13 04:00:00,59.4,52.8,29.00,North,0,0.0,0.0,79,0.00,CLR,,0.00,WeatherDisplay:10.37,2013-08-13 09:00:00,
2013-08-13 04:10:00,59.4,53.2,29.00,North,0,0.0,0.0,80,0.00,CLR,,0.00,WeatherDisplay:10.37,2013-08-13 09:10:00,
2013-08-13 04:20:00,59.2,53.0,29.00,North,0,0.0,0.0,80,0.00,CLR,,0.00,WeatherDisplay:10.37,2013-08-13 09:20:00,
2013-08-13 04:30:00,59.0,53.2,29.00,North,0,0.0,0.0,81,0.00,CLR,,0.00,WeatherDisplay:10.37,2013-08-13 09:30:00,
2013-08-13 04:40:00,58.7,53.2,29.00,North,0,0.0,0.0,82,0.00,CLR,,0.00,WeatherDisplay:10.37,2013-08-13 09:40:00,
2013-08-13 04:50:00,58.5,53.0,29.00,North,0,0.0,0.0,82,0.00,CLR,,0.00,WeatherDisplay:10.37,2013-08-13 09:50:00,
2013-08-13 05:00:00,58.1,53.0,29.00,North,0,0.0,0.0,83,0.00,CLR,,0.00,WeatherDisplay:10.37,2013-08-13 10:00:00,
2013-08-13 05:10:00,57.9,53.1,29.00,North,0,0.0,0.0,84,0.00,CLR,,0.00,WeatherDisplay:10.37,2013-08-13 10:10:00,
2013-08-13 05:20:00,57.7,53.3,29.00,North,0,0.0,0.0,85,0.00,CLR,,0.00,WeatherDisplay:10.37,2013-08-13 10:20:00,
2013-08-13 05:30:00,57.4,53.2,29.00,North,0,0.0,0.0,86,0.00,CLR,,0.00,WeatherDisplay:10.37,2013-08-13 10:30:00,
2013-08-13 05:40:00,57.2,53.4,29.00,North,0,0.0,0.0,87,0.00,CLR,,0.00,WeatherDisplay:10.37,2013-08-13 10:40:00,
2013-08-13 05:50:00,57.2,53.4,29.00,North,0,0.0,0.0,87,0.00,CLR,,0.00,WeatherDisplay:10.37,2013-08-13 10:50:00,
2013-08-13 06:00:00,56.8,53.6,29.00,North,0,0.0,0.0,89,0.00,CLR,,0.00,WeatherDisplay:10.37,2013-08-13 11:00:00,
2013-08-13 06:10:00,57.0,53.7,29.03,North,0,0.0,0.0,89,0.00,CLR,,0.00,WeatherDisplay:10.37,2013-08-13 11:10:00,
2013-08-13 06:20:00,56.8,53.6,29.03,North,0,0.0,0.0,89,0.00,CLR,,0.00,WeatherDisplay:10.37,2013-08-13 11:20:00,
2013-08-13 06:30:00,56.7,53.5,29.03,North,0,0.0,0.0,89,0.00,CLR,,0.00,WeatherDisplay:10.37,2013-08-13 11:30:00,
2013-08-13 06:40:00,56.3,53.4,29.03,North,0,0.0,0.0,90,0.00,CLR,,0.00,WeatherDisplay:10.37,2013-08-13 11:40:00,
2013-08-13 06:50:00,56.5,53.6,29.03,North,0,0.0,0.0,90,0.00,CLR,,0.00,WeatherDisplay:10.37,2013-08-13 11:50:00,
2013-08-13 07:00:00,56.7,54.1,29.03,North,0,0.0,0.0,91,0.00,CLR,,0.00,WeatherDisplay:10.37,2013-08-13 12:00:00,
2013-08-13 07:10:00,56.8,54.2,29.03,North,0,0.0,0.0,91,0.00,CLR,,0.00,WeatherDisplay:10.37,2013-08-13 12:10:00,
2013-08-13 07:20:00,57.2,54.6,29.03,North,0,0.0,0.0,91,0.00,CLR,,0.00,WeatherDisplay:10.37,2013-08-13 12:20:00,
2013-08-13 07:30:00,57.6,55.0,29.03,North,0,0.0,0.0,91,0.00,CLR,,0.00,WeatherDisplay:10.37,2013-08-13 12:30:00,
2013-08-13 07:40:00,58.1,55.8,29.03,North,0,0.0,0.0,92,0.00,CLR,,0.00,WeatherDisplay:10.37,2013-08-13 12:40:00,
2013-08-13 07:50:00,58.6,56.3,29.06,North,0,0.0,0.0,92,0.00,CLR,,0.00,WeatherDisplay:10.37,2013-08-13 12:50:00,
2013-08-13 08:00:00,59.2,56.2,29.06,North,0,0.0,0.0,90,0.00,CLR,,0.00,WeatherDisplay:10.37,2013-08-13 13:00:00,
2013-08-13 08:10:00,59.7,56.2,29.06,North,0,0.0,0.0,88,0.00,CLR,,0.00,WeatherDisplay:10.37,2013-08-13 13:10:00,
2013-08-13 08:20:00,60.3,55.7,29.06,North,0,0.0,0.0,85,0.00,CLR,,0.00,WeatherDisplay:10.37,2013-08-13 13:20:00,
2013-08-13 08:30:00,60.8,53.9,29.06,North,0,0.0,0.0,78,0.00,CLR,,0.00,WeatherDisplay:10.37,2013-08-13 13:30:00,
2013-08-13 08:40:00,61.5,53.1,29.06,North,0,0.0,0.0,74,0.00,CLR,,0.00,WeatherDisplay:10.37,2013-08-13 13:40:00,
2013-08-13 08:50:00,62.1,52.6,29.06,North,0,0.0,0.0,71,0.00,CLR,,0.00,WeatherDisplay:10.37,2013-08-13 13:50:00,
2013-08-13 09:00:00,62.6,51.5,29.06,North,0,0.0,0.0,67,0.00,CLR,,0.00,WeatherDisplay:10.37,2013-08-13 14:00:00,
2013-08-13 09:10:00,63.3,49.6,29.06,North,0,0.0,0.0,61,0.00,CLR,,0.00,WeatherDisplay:10.37,2013-08-13 14:10:00,
2013-08-13 09:20:00,63.9,48.3,29.06,North,0,0.0,0.0,57,0.00,CLR,,0.00,WeatherDisplay:10.37,2013-08-13 14:20:00,
2013-08-13 09:30:00,64.5,47.5,29.06,North,0,0.0,0.0,54,0.00,CLR,,0.00,WeatherDisplay:10.37,2013-08-13 14:30:00,
2013-08-13 09:40:00,65.1,46.0,29.06,North,0,0.0,0.0,50,0.00,CLR,,0.00,WeatherDisplay:10.37,2013-08-13 14:40:00,
2013-08-13 09:50:00,65.8,44.5,29.09,North,0,0.0,0.0,46,0.00,CLR,,0.00,WeatherDisplay:10.37,2013-08-13 14:50:00,
2013-08-13 10:00:00,66.9,44.3,29.09,North,0,0.0,0.0,44,0.00,CLR,,0.00,WeatherDisplay:10.37,2013-08-13 15:00:00,
2013-08-13 10:10:00,67.8,44.5,29.09,North,0,0.0,0.0,43,0.00,CLR,,0.00,WeatherDisplay:10.37,2013-08-13 15:10:00,
2013-08-13 10:20:00,67.8,42.6,29.09,North,0,0.0,0.0,40,0.00,CLR,,0.00,WeatherDisplay:10.37,2013-08-13 15:20:00,
2013-08-13 10:30:00,67.9,43.9,29.09,North,0,0.0,0.0,42,0.00,CLR,,0.00,WeatherDisplay:10.37,2013-08-13 15:30:00,
2013-08-13 10:40:00,67.8,43.2,29.09,North,0,0.0,0.0,41,0.00,CLR,,0.00,WeatherDisplay:10.37,2013-08-13 15:40:00,
2013-08-13 10:50:00,67.6,43.1,29.09,North,0,0.0,0.0,41,0.00,CLR,,0.00,WeatherDisplay:10.37,2013-08-13 15:50:00,
2013-08-13 11:00:00,68.2,42.9,29.09,North,0,0.0,0.0,40,0.00,CLR,,0.00,WeatherDisplay:10.37,2013-08-13 16:00:00,
2013-08-13 11:10:00,68.5,43.9,29.09,North,0,0.0,0.0,41,0.00,CLR,,0.00,WeatherDisplay:10.37,2013-08-13 16:10:00,
2013-08-13 11:20:00,68.8,42.1,29.09,North,0,0.0,0.0,38,0.00,CLR,,0.00,WeatherDisplay:10.37,2013-08-13 16:20:00,
2013-08-13 11:30:00,68.9,41.5,29.09,North,0,0.0,0.0,37,0.00,CLR,,0.00,WeatherDisplay:10.37,2013-08-13 16:30:00,
2013-08-13 11:40:00,69.1,41.7,29.09,North,0,0.0,0.0,37,0.00,CLR,,0.00,WeatherDisplay:10.37,2013-08-13 16:40:00,
2013-08-13 11:50:00,69.8,40.9,29.09,North,0,0.0,0.0,35,0.00,CLR,,0.00,WeatherDisplay:10.37,2013-08-13 16:50:00,
2013-08-13 12:00:00,69.6,40.7,29.09,North,0,0.0,0.0,35,0.00,CLR,,0.00,WeatherDisplay:10.37,2013-08-13 17:00:00,
2013-08-13 12:20:00,70.0,39.6,29.09,North,0,0.0,0.0,33,0.00,CLR,,0.00,WeatherDisplay:10.37,2013-08-13 17:20:00,
2013-08-13 12:30:00,70.1,40.4,29.09,North,0,0.0,0.0,34,0.00,CLR,,0.00,WeatherDisplay:10.37,2013-08-13 17:30:00,
2013-08-13 12:40:00,71.1,40.5,29.09,North,0,0.0,0.0,33,0.00,CLR,,0.00,WeatherDisplay:10.37,2013-08-13 17:40:00,
2013-08-13 12:50:00,71.6,40.2,29.09,North,0,0.0,0.0,32,0.00,CLR,,0.00,WeatherDisplay:10.37,2013-08-13 17:50:00,
2013-08-13 13:00:00,70.9,40.3,29.09,North,0,0.0,0.0,33,0.00,CLR,,0.00,WeatherDisplay:10.37,2013-08-13 18:00:00,
2013-08-13 13:10:00,71.0,39.7,29.06,North,0,0.0,0.0,32,0.00,CLR,,0.00,WeatherDisplay:10.37,2013-08-13 18:10:00,
2013-08-13 13:20:00,71.4,40.0,29.06,North,0,0.0,0.0,32,0.00,CLR,,0.00,WeatherDisplay:10.37,2013-08-13 18:20:00,
2013-08-13 13:30:00,71.1,40.5,29.06,North,0,0.0,0.0,33,0.00,CLR,,0.00,WeatherDisplay:10.37,2013-08-13 18:30:00,
2013-08-13 13:40:00,70.7,40.2,29.06,North,0,0.0,0.0,33,0.00,CLR,,0.00,WeatherDisplay:10.37,2013-08-13 18:40:00,
2013-08-13 13:50:00,71.2,40.6,29.06,North,0,0.0,0.0,33,0.00,CLR,,0.00,WeatherDisplay:10.37,2013-08-13 18:50:00,
2013-08-13 14:00:00,71.5,40.1,29.06,North,0,0.0,0.0,32,0.00,CLR,,0.00,WeatherDisplay:10.37,2013-08-13 19:00:00,
2013-08-13 14:10:00,71.8,40.3,29.06,North,0,0.0,0.0,32,0.00,CLR,,0.00,WeatherDisplay:10.37,2013-08-13 19:10:00,
2013-08-13 14:20:00,72.1,40.6,29.06,North,0,0.0,0.0,32,0.00,CLR,,0.00,WeatherDisplay:10.37,2013-08-13 19:20:00,
2013-08-13 14:30:00,71.8,40.3,29.06,North,0,0.0,0.0,32,0.00,CLR,,0.00,WeatherDisplay:10.37,2013-08-13 19:30:00,
2013-08-13 14:40:00,72.1,40.6,29.06,North,0,0.0,0.0,32,0.00,CLR,,0.00,WeatherDisplay:10.37,2013-08-13 19:40:00,
2013-08-13 14:50:00,71.6,40.2,29.06,North,0,0.0,0.0,32,0.00,CLR,,0.00,WeatherDisplay:10.37,2013-08-13 19:50:00,
2013-08-13 15:00:00,71.8,40.3,29.06,North,0,0.0,0.0,32,0.00,CLR,,0.00,WeatherDisplay:10.37,2013-08-13 20:00:00,
2013-08-13 15:10:00,72.0,40.5,29.06,North,0,0.0,0.0,32,0.00,CLR,,0.00,WeatherDisplay:10.37,2013-08-13 20:10:00,
2013-08-13 15:20:00,72.3,40.8,29.06,North,0,0.0,0.0,32,0.00,CLR,,0.00,WeatherDisplay:10.37,2013-08-13 20:20:00,
2013-08-13 15:30:00,72.3,40.8,29.06,North,0,0.0,0.0,32,0.00,CLR,,0.00,WeatherDisplay:10.37,2013-08-13 20:30:00,
2013-08-13 15:40:00,72.7,41.1,29.06,North,0,0.0,0.0,32,0.00,CLR,,0.00,WeatherDisplay:10.37,2013-08-13 20:40:00,
2013-08-13 15:50:00,72.1,40.6,29.03,North,0,0.0,0.0,32,0.00,CLR,,0.00,WeatherDisplay:10.37,2013-08-13 20:50:00,
2013-08-13 16:00:00,72.9,41.3,29.03,North,0,0.0,0.0,32,0.00,CLR,,0.00,WeatherDisplay:10.37,2013-08-13 21:00:00,
2013-08-13 16:10:00,72.3,40.8,29.03,North,0,0.0,0.0,32,0.00,CLR,,0.00,WeatherDisplay:10.37,2013-08-13 21:10:00,
2013-08-13 16:20:00,72.1,40.6,29.03,North,0,0.0,0.0,32,0.00,CLR,,0.00,WeatherDisplay:10.37,2013-08-13 21:20:00,
2013-08-13 16:30:00,72.0,40.5,29.03,North,0,0.0,0.0,32,0.00,CLR,,0.00,WeatherDisplay:10.37,2013-08-13 21:30:00,
2013-08-13 16:40:00,72.2,41.5,29.03,North,0,0.0,0.0,33,0.00,CLR,,0.00,WeatherDisplay:10.37,2013-08-13 21:40:00,
2013-08-13 16:50:00,73.0,41.4,29.03,North,0,0.0,0.0,32,0.00,CLR,,0.00,WeatherDisplay:10.37,2013-08-13 21:50:00,
2013-08-13 17:00:00,73.9,41.4,29.03,North,0,0.0,0.0,31,0.00,CLR,,0.00,WeatherDisplay:10.37,2013-08-13 22:00:00,
2013-08-13 17:10:00,72.9,41.3,29.03,North,0,0.0,0.0,32,0.00,CLR,,0.00,WeatherDisplay:10.37,2013-08-13 22:10:00,
2013-08-13 17:20:00,72.1,40.6,29.03,North,0,0.0,0.0,32,0.00,CLR,,0.00,WeatherDisplay:10.37,2013-08-13 22:20:00,
2013-08-13 17:30:00,72.9,40.4,29.03,North,0,0.0,0.0,31,0.00,CLR,,0.00,WeatherDisplay:10.37,2013-08-13 22:30:00,
2013-08-13 17:40:00,73.0,40.6,29.03,North,0,0.0,0.0,31,0.00,CLR,,0.00,WeatherDisplay:10.37,2013-08-13 22:40:00,
2013-08-13 17:50:00,72.7,40.3,29.03,North,0,0.0,0.0,31,0.00,CLR,,0.00,WeatherDisplay:10.37,2013-08-13 22:50:00,
2013-08-13 18:00:00,72.5,40.1,29.03,North,0,0.0,0.0,31,0.00,CLR,,0.00,WeatherDisplay:10.37,2013-08-13 23:00:00,
2013-08-13 18:10:00,72.5,40.1,29.03,North,0,0.0,0.0,31,0.00,CLR,,0.00,WeatherDisplay:10.37,2013-08-13 23:10:00,
2013-08-13 18:20:00,72.3,39.1,29.03,North,0,0.0,0.0,30,0.00,CLR,,0.00,WeatherDisplay:10.37,2013-08-13 23:20:00,
2013-08-13 18:30:00,72.1,39.8,29.03,North,0,0.0,0.0,31,0.00,CLR,,0.00,WeatherDisplay:10.37,2013-08-13 23:30:00,
2013-08-13 18:40:00,71.8,37.8,29.03,North,0,0.0,0.0,29,0.00,CLR,,0.00,WeatherDisplay:10.37,2013-08-13 23:40:00,
2013-08-13 18:50:00,71.8,36.0,29.03,North,0,0.0,0.0,27,0.00,CLR,,0.00,WeatherDisplay:10.37,2013-08-13 23:50:00,
2013-08-13 19:00:00,71.6,36.8,29.03,North,0,0.0,0.0,28,0.00,CLR,,0.00,WeatherDisplay:10.37,2013-08-14 00:00:00,
2013-08-13 19:10:00,71.4,36.6,29.03,North,0,0.0,0.0,28,0.00,CLR,,0.00,WeatherDisplay:10.37,2013-08-14 00:10:00,
2013-08-13 19:20:00,71.3,37.4,29.03,North,0,0.0,0.0,29,0.00,CLR,,0.00,WeatherDisplay:10.37,2013-08-14 00:20:00,
2013-08-13 19:30:00,70.9,37.0,29.03,North,0,0.0,0.0,29,0.00,CLR,,0.00,WeatherDisplay:10.37,2013-08-14 00:30:00,
2013-08-13 19:40:00,70.3,37.4,29.03,North,0,0.0,0.0,30,0.00,CLR,,0.00,WeatherDisplay:10.37,2013-08-14 00:40:00,
2013-08-13 19:50:00,69.8,37.8,29.03,North,0,0.0,0.0,31,0.00,CLR,,0.00,WeatherDisplay:10.37,2013-08-14 00:50:00,
2013-08-13 20:00:00,69.4,38.3,29.03,North,0,0.0,0.0,32,0.00,CLR,,0.00,WeatherDisplay:10.37,2013-08-14 01:00:00,
2013-08-13 20:10:00,68.9,37.8,29.03,North,0,0.0,0.0,32,0.00,CLR,,0.00,WeatherDisplay:10.37,2013-08-14 01:10:00,
2013-08-13 20:20:00,68.4,37.3,29.03,North,0,0.0,0.0,32,0.00,CLR,,0.00,WeatherDisplay:10.37,2013-08-14 01:20:00,
2013-08-13 20:30:00,67.7,37.6,29.03,North,0,0.0,0.0,33,0.00,CLR,,0.00,WeatherDisplay:10.37,2013-08-14 01:30:00,
2013-08-13 20:40:00,67.1,37.8,29.03,North,0,0.0,0.0,34,0.00,CLR,,0.00,WeatherDisplay:10.37,2013-08-14 01:40:00,
2013-08-13 20:50:00,66.4,37.9,29.03,North,0,0.0,0.0,35,0.00,CLR,,0.00,WeatherDisplay:10.37,2013-08-14 01:50:00,
2013-08-13 21:00:00,65.8,38.1,29.03,North,0,0.0,0.0,36,0.00,CLR,,0.00,WeatherDisplay:10.37,2013-08-14 02:00:00,
2013-08-13 21:10:00,65.1,38.2,29.03,North,0,0.0,0.0,37,0.00,CLR,,0.00,WeatherDisplay:10.37,2013-08-14 02:10:00,
2013-08-13 21:20:00,64.6,39.0,29.03,North,0,0.0,0.0,39,0.00,CLR,,0.00,WeatherDisplay:10.37,2013-08-14 02:20:00,
2013-08-13 21:30:00,64.2,39.4,29.03,North,0,0.0,0.0,40,0.00,CLR,,0.00,WeatherDisplay:10.37,2013-08-14 02:30:00,
2013-08-13 21:40:00,63.9,39.7,29.03,North,0,0.0,0.0,41,0.00,CLR,,0.00,WeatherDisplay:10.37,2013-08-14 02:40:00,
2013-08-13 21:50:00,63.5,40.0,29.06,North,0,0.0,0.0,42,0.00,CLR,,0.00,WeatherDisplay:10.37,2013-08-14 02:50:00,
2013-08-13 22:00:00,63.1,40.3,29.06,North,0,0.0,0.0,43,0.00,CLR,,0.00,WeatherDisplay:10.37,2013-08-14 03:00:00,
2013-08-13 22:10:00,62.7,40.4,29.06,North,0,0.0,0.0,44,0.00,CLR,,0.00,WeatherDisplay:10.37,2013-08-14 03:10:00,
2013-08-13 22:20:00,62.2,40.6,29.06,North,0,0.0,0.0,45,0.00,CLR,,0.00,WeatherDisplay:10.37,2013-08-14 03:20:00,
2013-08-13 22:30:00,61.9,41.4,29.06,North,0,0.0,0.0,47,0.00,CLR,,0.00,WeatherDisplay:10.37,2013-08-14 03:30:00,
2013-08-13 22:40:00,61.7,41.8,29.06,North,0,0.0,0.0,48,0.00,CLR,,0.00,WeatherDisplay:10.37,2013-08-14 03:40:00,
2013-08-13 22:50:00,61.3,42.0,29.06,North,0,0.0,0.0,49,0.00,CLR,,0.00,WeatherDisplay:10.37,2013-08-14 03:50:00,
2013-08-13 23:00:00,61.2,42.4,29.06,North,0,0.0,0.0,50,0.00,CLR,,0.00,WeatherDisplay:10.37,2013-08-14 04:00:00,
2013-08-13 23:10:00,60.8,42.5,29.06,North,0,0.0,0.0,51,0.00,CLR,,0.00,WeatherDisplay:10.37,2013-08-14 04:10:00,
2013-08-13 23:20:00,60.6,42.9,29.06,North,0,0.0,0.0,52,0.00,CLR,,0.00,WeatherDisplay:10.37,2013-08-14 04:20:00,
2013-08-13 23:30:00,60.4,43.2,29.06,North,0,0.0,0.0,53,0.00,CLR,,0.00,WeatherDisplay:10.37,2013-08-14 04:30:00,
2013-08-13 23:40:00,60.1,43.4,29.06,North,0,0.0,0.0,54,0.00,CLR,,0.00,WeatherDisplay:10.37,2013-08-14 04:40:00,
2013-08-13 23:50:00,59.9,44.2,29.06,North,0,0.0,0.0,56,0.00,CLR,,0.00,WeatherDisplay:10.37,2013-08-14 04:50:00,